FW9167 Weather Reports


time (UTC)temp
F
wind
direction
speed
knots
gust
knots
rain 1hr
in
rain 24hr
in
rain mn
in
humidity
%
barometer
mb
20260503044606 60 121 0.0 0.0 0.00 0.00 0.00 44 1015.1
20260503043102 61 347 0.0 2.6 0.00 0.00 0.00 42 1015.0
20260503041602 62 340 0.9 4.3 0.00 0.00 0.00 43 1014.9
20260503034602 63 298 1.7 4.3 0.00 0.00 0.00 40 1014.7
20260503033102 62 334 1.7 4.3 0.00 0.00 0.00 45 1014.6
20260503031602 62 300 4.3 5.2 0.00 0.00 0.00 45 1014.4
20260503024605 62 342 1.7 4.3 0.00 0.00 0.00 45 1014.2
20260503023101 64 325 0.9 3.5 0.00 0.00 0.00 43 1014.1
20260503021602 67 326 0.9 3.5 0.00 0.00 0.00 44 1014.2
20260503014602 76 274 0.9 1.7 0.00 0.00 0.00 37 1014.0
20260503013102 79 49 0.0 0.9 0.00 0.00 0.00 23 1014.0
20260503011602 78 113 0.0 0.9 0.00 0.00 0.00 19 1014.0
20260503004602 76 109 0.0 0.9 0.00 0.00 0.00 33 1014.2
20260503003107 78 134 0.0 0.9 0.00 0.00 0.00 35 1014.2
20260503001602 77 153 0.0 0.9 0.00 0.00 0.00 34 1014.1
20260502234602 80 122 0.0 2.6 0.00 0.00 0.00 27 1014.3
20260502233102 79 146 0.0 4.3 0.00 0.00 0.00 30 1014.4
20260502231602 79 152 1.7 3.5 0.00 0.00 0.00 32 1014.5
20260502224603 79 145 0.0 2.6 0.00 0.00 0.00 28 1014.9
20260502223103 79 142 0.0 4.3 0.00 0.00 0.00 27 1015.2
20260502221602 79 116 0.0 4.3 0.00 0.00 0.00 26 1015.4
20260502214606 78 142 0.0 3.5 0.00 0.00 0.00 29 1015.8
20260502213102 77 110 1.7 6.1 0.00 0.00 0.00 29 1016.0
20260502211603 77 125 0.9 4.3 0.00 0.00 0.00 30 1016.2
20260502204606 76 162 0.0 3.5 0.00 0.00 0.00 26 1016.4
20260502203102 76 108 1.7 5.2 0.00 0.00 0.00 29 1016.5
20260502201603 76 113 0.0 4.3 0.00 0.00 0.00 25 1016.6
20260502200104 75 201 1.7 3.5 0.00 0.00 0.00 26 1016.8
20260502194602 75 197 1.7 4.3 0.00 0.00 0.00 29 1016.9
20260502193102 74 198 1.7 3.5 0.00 0.00 0.00 30 1017.0
20260502191604 73 142 1.7 4.3 0.00 0.00 0.00 33 1017.2
20260502190107 72 115 0.9 3.5 0.00 0.00 0.00 34 1017.3
20260502184601 72 112 0.9 2.6 0.00 0.00 0.00 39 1017.5
20260502181603 69 238 0.0 1.7 0.00 0.00 0.00 43 1017.8
20260502170103 64 131 0.0 1.7 0.00 0.00 0.00 52 1018.1
20260502163102 62 153 0.0 0.9 0.00 0.00 0.00 56 1018.1
20260502161602 61 70 0.0 0.9 0.00 0.00 0.00 55 1018.2
20260502151602 56 137 0.0 0.9 0.00 0.00 0.00 63 1018.4
20260502150104 54 158 0.0 0.0 0.00 0.00 0.00 68 1018.3
20260502130106 39 341 0.0 0.9 0.00 0.00 0.00 83 1018.1
20260502123101 41 275 0.0 0.9 0.00 0.00 0.00 81 1018.0
20260502121602 42 278 0.0 0.9 0.00 0.00 0.00 78 1018.1
20260502114603 45 334 0.0 0.9 0.00 0.00 0.00 75 1018.1
20260502113104 44 338 0.0 0.9 0.00 0.00 0.00 77 1018.1
20260502111607 42 334 0.0 0.9 0.00 0.00 0.00 81 1018.1
20260502104602 42 350 0.0 0.0 0.00 0.00 0.00 81 1018.3
20260502103103 41 24 0.0 0.9 0.00 0.00 0.00 81 1018.3
20260502090105 46 343 0.0 0.0 0.00 0.00 0.00 70 1018.1
20260502080103 48 36 0.0 0.0 0.00 0.00 0.00 66 1018.4
20260502063105 51 314 0.0 0.9 0.00 0.00 0.00 60 1018.4
20260502061602 50 336 0.0 0.9 0.00 0.00 0.00 63 1018.4
20260502054602 51 345 0.0 0.9 0.00 0.00 0.00 60 1018.4
20260502053102 52 318 0.0 0.0 0.00 0.00 0.00 60 1018.4